Home > Weather > Waterford > Past weeks

Flag for Ireland Past Weather in Waterford, Ireland — Yesterday and Last 2 Weeks

Now
59 °F

Partly sunny.


Feels Like: 57 °F
Forecast: 58 / 68 °F
Wind: 13 mph from North

Location: Cork Airport

Current Time: Jul 27, 2016 at 8:59:07 AM

Latest Report: Jul 27, 2016 at 8:30 AM


Visibility: N/A

Pressure: 30.07 "Hg

Humidity: 88%

Dew Point: 55 °F

Location of WaterfordLocation

Past Weather in Waterford — Graph

°F

Waterford Temperature Yesterday

Maximum temperature yesterday: 66 °F (at 2:30 PM)
Minimum temperature yesterday: 52 °F (at 12:30 AM)
Average temperature yesterday: 59 °F

High & Low Weather Summary for the Past Weeks

 TemperatureHumidityPressure
High73 °F (Jul 17, 4:30 PM)100% (Jul 14, 7:30 PM)30.36 "Hg (Jul 14, 7:30 PM)
Low48 °F (Jul 14, 4:30 AM)46% (Jul 18, 1:30 PM)29.80 "Hg (Jul 20, 12:00 AM)
Average60 °F88%30.10 "Hg
* Reported Jul 12 8:00 AM — Jul 27 8:00 AM, Waterford, Weather by CustomWeather, © 2016

Note: Actual official high and low records may vary slightly from our data, if they occured in-between our weather recording intervals... More about our weather records

Advertising

Waterford Weather History for the Previous 24 Hours

Scroll right to see more
 ConditionsComfort  
Time TempWeatherWind HumidityBarometerVisibility
8:00 AM
Wed, Jul 27
57 °FBroken clouds.12 mph100%30.04 "HgN/A
7:30 AM57 °FBroken clouds.10 mph100%30.04 "HgN/A
7:00 AM59 °FBroken clouds.15 mph94%30.04 "HgN/A
6:30 AM57 °FPartly cloudy.13 mph100%30.04 "HgN/A
6:00 AM57 °FPassing clouds.8 mph100%30.01 "HgN/A
5:30 AM59 °FPassing clouds.8 mph94%30.01 "HgN/A
5:00 AM57 °FPassing clouds.7 mph100%30.01 "HgN/A
4:30 AM59 °FPassing clouds.7 mph94%30.01 "HgN/A
4:00 AM59 °FPartly cloudy.14 mph94%29.98 "HgN/A
3:30 AM59 °FPartly cloudy.15 mph100%29.98 "HgN/A
3:00 AM59 °FPassing clouds.13 mph100%30.01 "HgN/A
2:30 AM59 °FPartly cloudy.9 mph100%30.01 "Hg4 mi
2:00 AM59 °FPassing clouds.8 mph100%30.01 "HgN/A
1:30 AM59 °FPassing clouds.7 mph100%30.01 "HgN/A
1:00 AM59 °FPassing clouds.8 mph100%30.01 "HgN/A
12:30 AM59 °FPassing clouds.9 mph100%30.01 "HgN/A
12:00 AM59 °FPassing clouds.9 mph100%29.98 "HgN/A
11:30 PM
Tue, Jul 26
59 °FPartly cloudy.13 mph100%30.01 "HgN/A
11:00 PM59 °FPartly cloudy.13 mph100%30.01 "HgN/A
10:30 PM59 °FDrizzle. Broken clouds.12 mph100%30.01 "HgN/A
10:00 PM59 °FRain. Broken clouds.10 mph100%30.01 "Hg5 mi
9:30 PM59 °FDrizzle. Broken clouds.10 mph100%30.01 "HgN/A
9:00 PM59 °FDrizzle. Broken clouds.9 mph100%30.04 "HgN/A
8:30 PM59 °FDrizzle. Broken clouds.10 mph100%30.01 "HgN/A
8:00 PM61 °FDrizzle. Broken clouds.14 mph100%30.01 "HgN/A
7:30 PM61 °FBroken clouds.14 mph94%30.04 "HgN/A
7:00 PM61 °FPartly sunny.15 mph94%30.04 "HgN/A
6:30 PM61 °FPartly sunny.16 mph94%30.04 "HgN/A
6:00 PM63 °FPartly sunny.16 mph88%30.04 "HgN/A
5:30 PM63 °FPartly sunny.15 mph88%30.04 "HgN/A
5:00 PM63 °FPartly sunny.14 mph94%30.04 "HgN/A
4:30 PM64 °FPartly sunny.14 mph88%30.07 "HgN/A
4:00 PM64 °FPartly sunny.15 mph88%30.07 "HgN/A
3:30 PM64 °FPartly sunny.13 mph88%30.07 "HgN/A
3:00 PM64 °FPartly sunny.14 mph94%30.07 "HgN/A
2:30 PM66 °FPartly sunny.15 mph88%30.07 "HgN/A
2:00 PM63 °FPartly sunny.12 mph94%30.09 "HgN/A
1:30 PM63 °FDrizzle. Partly sunny.12 mph94%30.09 "HgN/A
1:00 PM63 °FPartly sunny.13 mph94%30.09 "HgN/A
12:30 PM63 °FPartly sunny.12 mph94%30.09 "HgN/A
12:00 PM61 °FPartly sunny.12 mph94%30.12 "HgN/A
11:30 AM61 °FPartly sunny.10 mph100%30.12 "HgN/A
11:00 AM61 °FPartly sunny.14 mph94%30.12 "HgN/A
10:30 AM61 °FPartly sunny.14 mph94%30.12 "HgN/A
10:00 AM61 °FPartly sunny.12 mph100%30.12 "HgN/A
9:30 AM59 °FDrizzle. Partly sunny.10 mph100%30.12 "Hg6 mi
9:00 AM59 °FBroken clouds.9 mph100%30.12 "HgN/A
8:30 AM59 °FBroken clouds.9 mph100%30.12 "HgN/A
8:00 AM57 °FPartly sunny.7 mph100%30.12 "HgN/A
Weather by CustomWeather, © 2016

See weather overviewHow to use our weather pages